User: anonymous   Login
Location: Fort Wayne
(41.1310°N, 85.1290°W)
Time: 16:54:49
(UTC-04:00)
Language:

Iridium 37 - Orbit

View from above orbital plane
View from above orbital plane
View from above satellite
View from above satellite

Ground track
Ground track

The orbit data is extracted from the following two-line orbital elements,

1 24968U 97056D   17178.85407962 +.00000101 +00000-0 +28875-4 0  9997
2 24968 086.3963 314.4159 0002306 094.2940 265.8519 14.34215360033856
Epoch (UTC): 27 June 2017 20:29:52
Eccentricity: 0.0002306
inclination: 86.3963°
perigee height: 776 km
apogee height: 779 km
right ascension of ascending node: 314.4159°
argument of perigee: 94.2940°
revolutions per day: 14.34215360
mean anomaly at epoch: 265.8519°
orbit number at epoch: 3385

The dashed part of the orbit path shows where the satellite is in the earth's shadow,  

DLR